Powrót do katalogu

STARLINK-11087

AktywnyŁącznośćVLEO
NORAD 59421·PAYLOAD·🇺🇸 United States

Wystrzelony Apr 7, 2024 z Vandenberg Space Force Base

Loading…

Następne Przeloty (najbliższe 24 godziny)

TLE

ŚwieżeSource: CelesTrak SupGP

Epoka: Sep 14, 2026, 20:59 UTC

1 59421C 24065A   26257.87479167  .00053642  00000+0  44186-3 0  2571
2 59421  53.1571 241.4028 0001191  95.5427 311.1016 15.69683022    16

Śledź STARLINK-11087 w czasie rzeczywistym z AllMySat

Download on the App Store